,,Stat5,,Stat1,,Stat2,,Stat3,,Stat4,,Wind1,,Wind1,
time,status,PA1M_AVG,status,PR1M_SUM,status,RH1M_AVG,status,SR1M_AVG,status,TA1M_AVG,status,W1dAve1m,status,W1sAve1m,
2002-12-10, 00:00:00,VALID,919.085,VALID,0,VALID,94.8477,VALID,0.0679233,VALID,20.2449,VALID,89,VALID,1.09275,
2002-12-10, 00:01:00,VALID,919.085,VALID,0,VALID,94.9138,VALID,0.0509425,VALID,20.2422,VALID,100,VALID,1.22637,
2002-12-10, 00:02:00,VALID,919.053,VALID,0,VALID,94.9583,VALID,0.0339617,VALID,20.2427,VALID,62,VALID,0.955025,
2002-12-10, 00:03:00,VALID,919.039,VALID,0,VALID,94.999,VALID,0,VALID,20.2295,VALID,69,VALID,0.644848,
2002-12-10, 00:04:00,VALID,919.01,VALID,0,VALID,95.1338,VALID,0.0169808,VALID,20.2007,VALID,100,VALID,1.0645,
2002-12-10, 00:05:00,VALID,919.012,VALID,0,VALID,95.2317,VALID,0.0339617,VALID,20.2102,VALID,104,VALID,0.940995,
2002-12-10, 00:06:00,VALID,919.033,VALID,0,VALID,95.1491,VALID,0,VALID,20.2333,VALID,102,VALID,0.980564,
2002-12-10, 00:07:00,VALID,919.052,VALID,0,VALID,95.0868,VALID,-0.0849042,VALID,20.247,VALID,103,VALID,0.740954,
2002-12-10, 00:08:00,VALID,919.059,VALID,0,VALID,95.1605,VALID,-0.118866,VALID,20.2477,VALID,73,VALID,0.457899,
2002-12-10, 00:09:00,VALID,919.044,VALID,0,VALID,95.027,VALID,-0.0679233,VALID,20.1729,VALID,47,VALID,0.632589,
2002-12-10, 00:10:00,VALID,919.034,VALID,0,VALID,95.3818,VALID,-0.0679233,VALID,20.1085,VALID,63,VALID,0.505701,
2002-12-10, 00:11:00,VALID,919.013,VALID,0,VALID,95.6463,VALID,-0.0339617,VALID,20.0663,VALID,61,VALID,0.928998,
2002-12-10, 00:12:00,VALID,919.011,VALID,0,VALID,95.851,VALID,-0.0679233,VALID,20.0307,VALID,70,VALID,0.81871,
2002-12-10, 00:13:00,VALID,919.009,VALID,0,VALID,96.0519,VALID,-0.101885,VALID,19.9753,VALID,56,VALID,1.15013,
2002-12-10, 00:14:00,VALID,918.994,VALID,0,VALID,96.1854,VALID,-0.0849042,VALID,19.9502,VALID,34,VALID,0.783361,
2002-12-10, 00:15:00,VALID,918.966,VALID,0,VALID,96.3978,VALID,-0.0849042,VALID,19.9149,VALID,33,VALID,0.559005,
2002-12-10, 00:16:00,VALID,918.954,VALID,0,VALID,96.6432,VALID,-0.101885,VALID,19.8985,VALID,64,VALID,0.657965,
2002-12-10, 00:17:00,VALID,918.943,VALID,0,VALID,96.8009,VALID,-0.0849042,VALID,19.8953,VALID,72,VALID,0.456003,
2002-12-10, 00:18:00,VALID,918.915,VALID,0,VALID,96.956,VALID,-0.0849042,VALID,19.9085,VALID,75,VALID,0.796053,
2002-12-10, 00:19:00,VALID,918.897,VALID,0,VALID,96.9598,VALID,-0.0849042,VALID,19.9279,VALID,117,VALID,1.02062,
2002-12-10, 00:20:00,VALID,918.88,VALID,0,VALID,96.9573,VALID,-0.0849042,VALID,19.9502,VALID,123,VALID,0.586149,
2002-12-10, 00:21:00,VALID,918.869,VALID,0,VALID,96.9179,VALID,-0.0679233,VALID,19.9629,VALID,132,VALID,0.891544,
2002-12-10, 00:22:00,VALID,918.828,VALID,0,VALID,96.7462,VALID,-0.0169808,VALID,19.9723,VALID,113,VALID,0.585156,
2002-12-10, 00:23:00,VALID,918.808,VALID,0,VALID,96.834,VALID,-0.0169808,VALID,19.9955,VALID,119,VALID,1.02724,
2002-12-10, 00:24:00,VALID,918.773,VALID,0,VALID,96.7437,VALID,-0.0679233,VALID,20.0019,VALID,117,VALID,1.22615,
2002-12-10, 00:25:00,VALID,918.762,VALID,0,VALID,96.5987,VALID,-0.0339617,VALID,20.0116,VALID,107,VALID,1.29215,
2002-12-10, 00:26:00,VALID,918.759,VALID,0,VALID,96.5733,VALID,-0.0339617,VALID,20.0345,VALID,111,VALID,0.79043,
2002-12-10, 00:27:00,VALID,918.74,VALID,0,VALID,96.4385,VALID,0,VALID,20.0598,VALID,105,VALID,0.896176,
2002-12-10, 00:28:00,VALID,918.733,VALID,0,VALID,96.3279,VALID,-0.0339617,VALID,20.0563,VALID,127,VALID,0.604818,
2002-12-10, 00:29:00,VALID,918.731,VALID,0,VALID,96.3266,VALID,-0.0339617,VALID,20.0531,VALID,129,VALID,0.75549,
2002-12-10, 00:30:00,VALID,918.74,VALID,0,VALID,96.3736,VALID,-0.0509425,VALID,20.034,VALID,128,VALID,0.988715,
2002-12-10, 00:31:00,VALID,918.734,VALID,0,VALID,96.3825,VALID,0,VALID,20.0437,VALID,125,VALID,1.00239,
2002-12-10, 00:32:00,VALID,918.739,VALID,0,VALID,96.3482,VALID,0,VALID,20.0313,VALID,112,VALID,0.761624,
2002-12-10, 00:33:00,VALID,918.736,VALID,0,VALID,96.4601,VALID,-0.0169808,VALID,20.0176,VALID,128,VALID,0.934122,
2002-12-10, 00:34:00,VALID,918.716,VALID,0,VALID,96.5288,VALID,0,VALID,20.0086,VALID,142,VALID,0.654605,
2002-12-10, 00:35:00,VALID,918.699,VALID,0,VALID,96.6216,VALID,-0.0169808,VALID,19.9863,VALID,133,VALID,0.764992,
2002-12-10, 00:36:00,VALID,918.688,VALID,0,VALID,96.6915,VALID,-0.0339617,VALID,19.9567,VALID,131,VALID,0.848242,
2002-12-10, 00:37:00,VALID,918.654,VALID,0,VALID,96.8492,VALID,-0.0169808,VALID,19.9462,VALID,144,VALID,0.825247,
2002-12-10, 00:38:00,VALID,918.614,VALID,0,VALID,96.9459,VALID,0,VALID,19.9505,VALID,147,VALID,0.993877,
2002-12-10, 00:39:00,VALID,918.574,VALID,0,VALID,96.9484,VALID,-0.0339617,VALID,19.9403,VALID,134,VALID,0.828547,
2002-12-10, 00:40:00,VALID,918.543,VALID,0,VALID,96.8963,VALID,0,VALID,19.9239,VALID,121,VALID,0.434966,
2002-12-10, 00:41:00,VALID,918.521,VALID,0,VALID,96.9395,VALID,0,VALID,19.9241,VALID,122,VALID,0.317857,
2002-12-10, 00:42:00,VALID,918.512,VALID,0,VALID,97.0247,VALID,-0.0169808,VALID,19.9047,VALID,139,VALID,0.587171,
2002-12-10, 00:43:00,VALID,918.488,VALID,0,VALID,97.0285,VALID,-0.0169808,VALID,19.8888,VALID,135,VALID,0.719383,
2002-12-10, 00:44:00,VALID,918.487,VALID,0,VALID,97.1061,VALID,-0.0169808,VALID,19.8754,VALID,106,VALID,0.945735,
2002-12-10, 00:45:00,VALID,918.455,VALID,0,VALID,97.1417,VALID,-0.0169808,VALID,19.8754,VALID,118,VALID,1.15625,
2002-12-10, 00:46:00,VALID,918.433,VALID,0,VALID,97.0934,VALID,0,VALID,19.8789,VALID,131,VALID,0.896913,
2002-12-10, 00:47:00,VALID,918.401,VALID,0,VALID,97.0717,VALID,0,VALID,19.8956,VALID,141,VALID,0.968339,
2002-12-10, 00:48:00,VALID,918.356,VALID,0,VALID,97.0209,VALID,-0.0169808,VALID,19.8821,VALID,152,VALID,1.22656,
2002-12-10, 00:49:00,VALID,918.323,VALID,0,VALID,96.9484,VALID,0,VALID,19.8754,VALID,168,VALID,0.897352,
2002-12-10, 00:50:00,VALID,918.318,VALID,0,VALID,96.7119,VALID,0,VALID,19.8632,VALID,128,VALID,0.48353,
2002-12-10, 00:51:00,VALID,918.312,VALID,0,VALID,96.75,VALID,0,VALID,19.8111,VALID,150,VALID,0.986903,
2002-12-10, 00:52:00,VALID,918.313,VALID,0,VALID,96.8975,VALID,0,VALID,19.7658,VALID,153,VALID,0.750586,
2002-12-10, 00:53:00,VALID,918.321,VALID,0,VALID,97.1201,VALID,-0.0169808,VALID,19.7566,VALID,156,VALID,0.553085,
2002-12-10, 00:54:00,VALID,918.316,VALID,0,VALID,97.265,VALID,-0.0339617,VALID,19.7335,VALID,167,VALID,0.589844,
2002-12-10, 00:55:00,VALID,918.333,VALID,0,VALID,97.335,VALID,-0.0339617,VALID,19.7281,VALID,162,VALID,0.898849,
2002-12-10, 00:56:00,VALID,918.343,VALID,0,VALID,97.5168,VALID,-0.0339617,VALID,19.7087,VALID,154,VALID,1.37773,
2002-12-10, 00:57:00,VALID,918.34,VALID,0,VALID,97.6414,VALID,-0.0339617,VALID,19.6786,VALID,151,VALID,1.20765,
2002-12-10, 00:58:00,VALID,918.363,VALID,0,VALID,97.7724,VALID,-0.0339617,VALID,19.6759,VALID,163,VALID,1.25412,
2002-12-10, 00:59:00,VALID,918.391,VALID,0,VALID,97.9657,VALID,0,VALID,19.6821,VALID,152,VALID,1.47698,
2002-12-10, 01:00:00,VALID,918.4,VALID,0,VALID,97.9873,VALID,0.101885,VALID,19.697,VALID,150,VALID,1.58377,
2002-12-10, 01:01:00,VALID,918.406,VALID,0,VALID,97.9797,VALID,0.0849042,VALID,19.7099,VALID,160,VALID,0.835069,
2002-12-10, 01:02:00,VALID,918.403,VALID,0,VALID,97.9581,VALID,0.0509425,VALID,19.7032,VALID,150,VALID,1.25572,
2002-12-10, 01:03:00,VALID,918.372,VALID,0,VALID,98.0242,VALID,0.0849042,VALID,19.6967,VALID,147,VALID,1.54392,
2002-12-10, 01:04:00,VALID,918.357,VALID,0,VALID,98.0839,VALID,0.101885,VALID,19.7097,VALID,147,VALID,1.37336,
2002-12-10, 01:05:00,VALID,918.356,VALID,0,VALID,98.0649,VALID,0.101885,VALID,19.7293,VALID,139,VALID,1.61444,
2002-12-10, 01:06:00,VALID,918.353,VALID,0,VALID,98.0038,VALID,0.0509425,VALID,19.7618,VALID,147,VALID,2.07617,
2002-12-10, 01:07:00,VALID,918.347,VALID,0,VALID,97.8805,VALID,0,VALID,19.8068,VALID,145,VALID,1.91982,
2002-12-10, 01:08:00,VALID,918.328,VALID,0,VALID,97.691,VALID,0,VALID,19.8627,VALID,150,VALID,1.3106,
2002-12-10, 01:09:00,VALID,918.317,VALID,0,VALID,97.5562,VALID,0,VALID,19.8851,VALID,149,VALID,1.61191,
2002-12-10, 01:10:00,VALID,918.309,VALID,0,VALID,97.3871,VALID,-0.0169808,VALID,19.8878,VALID,133,VALID,1.32749,
2002-12-10, 01:11:00,VALID,918.301,VALID,0,VALID,97.3604,VALID,0,VALID,19.8814,VALID,155,VALID,1.49933,
2002-12-10, 01:12:00,VALID,918.294,VALID,0,VALID,97.2752,VALID,0,VALID,19.9042,VALID,152,VALID,2.21217,
2002-12-10, 01:13:00,VALID,918.287,VALID,0,VALID,97.1213,VALID,0,VALID,19.9139,VALID,160,VALID,1.12247,
2002-12-10, 01:14:00,VALID,918.295,VALID,0,VALID,97.045,VALID,0,VALID,19.9107,VALID,153,VALID,1.80089,
2002-12-10, 01:15:00,VALID,918.292,VALID,0,VALID,97.1506,VALID,-0.0169808,VALID,19.9144,VALID,145,VALID,1.62274,
2002-12-10, 01:16:00,VALID,918.299,VALID,0,VALID,97.2218,VALID,0,VALID,19.9274,VALID,145,VALID,1.87386,
2002-12-10, 01:17:00,VALID,918.256,VALID,0,VALID,97.2663,VALID,0,VALID,19.9428,VALID,140,VALID,1.9361,
2002-12-10, 01:18:00,VALID,918.256,VALID,0,VALID,97.2218,VALID,0,VALID,19.9589,VALID,141,VALID,1.52632,
2002-12-10, 01:19:00,VALID,918.222,VALID,0,VALID,97.0908,VALID,0,VALID,19.9915,VALID,144,VALID,1.53863,
2002-12-10, 01:20:00,VALID,918.23,VALID,0,VALID,96.937,VALID,0,VALID,20.0111,VALID,141,VALID,1.57348,
2002-12-10, 01:21:00,VALID,918.232,VALID,0,VALID,96.8518,VALID,0,VALID,19.9947,VALID,146,VALID,1.36466,
2002-12-10, 01:22:00,VALID,918.228,VALID,0,VALID,96.9052,VALID,-0.0169808,VALID,19.9848,VALID,139,VALID,1.65937,
2002-12-10, 01:23:00,VALID,918.22,VALID,0,VALID,96.839,VALID,0,VALID,19.992,VALID,149,VALID,1.89724,
2002-12-10, 01:24:00,VALID,918.207,VALID,0,VALID,96.8022,VALID,0,VALID,19.9882,VALID,141,VALID,1.81497,
2002-12-10, 01:25:00,VALID,918.202,VALID,0,VALID,96.7513,VALID,0,VALID,20.0044,VALID,140,VALID,1.81538,
2002-12-10, 01:26:00,VALID,918.189,VALID,0,VALID,96.6458,VALID,0,VALID,20.0302,VALID,143,VALID,1.46602,
2002-12-10, 01:27:00,VALID,918.164,VALID,0,VALID,96.5606,VALID,0,VALID,20.0461,VALID,158,VALID,1.43544,
2002-12-10, 01:28:00,VALID,918.142,VALID,0,VALID,96.5364,VALID,-0.0169808,VALID,20.0268,VALID,150,VALID,1.01194,
2002-12-10, 01:29:00,VALID,918.138,VALID,0,VALID,96.5415,VALID,0,VALID,20.027,VALID,144,VALID,0.773438,
2002-12-10, 01:30:00,VALID,918.148,VALID,0,VALID,96.6102,VALID,0.0169808,VALID,20.0044,VALID,163,VALID,0.978299,
2002-12-10, 01:31:00,VALID,918.166,VALID,0,VALID,96.6979,VALID,0.0169808,VALID,19.9681,VALID,157,VALID,1.04948,
2002-12-10, 01:32:00,VALID,918.2,VALID,0,VALID,96.7068,VALID,-0.0169808,VALID,19.952,VALID,141,VALID,1.03354,
2002-12-10, 01:33:00,VALID,918.216,VALID,0,VALID,96.7246,VALID,0,VALID,19.9201,VALID,150,VALID,1.0057,
2002-12-10, 01:34:00,VALID,918.221,VALID,0,VALID,96.8073,VALID,0.0339617,VALID,19.898,VALID,156,VALID,1.30592,
2002-12-10, 01:35:00,VALID,918.229,VALID,0,VALID,96.9064,VALID,0,VALID,19.8714,VALID,154,VALID,1.66322,
2002-12-10, 01:36:00,VALID,918.223,VALID,0,VALID,97.1163,VALID,0,VALID,19.855,VALID,159,VALID,1.63086,
2002-12-10, 01:37:00,VALID,918.228,VALID,0,VALID,97.1836,VALID,0,VALID,19.8784,VALID,155,VALID,1.51377,
2002-12-10, 01:38:00,VALID,918.211,VALID,0,VALID,97.2294,VALID,0,VALID,19.8749,VALID,146,VALID,1.66765,
2002-12-10, 01:39:00,VALID,918.178,VALID,0,VALID,97.2409,VALID,0,VALID,19.8854,VALID,155,VALID,1.10832,
2002-12-10, 01:40:00,VALID,918.156,VALID,0,VALID,97.2905,VALID,0,VALID,19.8682,VALID,158,VALID,1.22361,
2002-12-10, 01:41:00,VALID,918.132,VALID,0,VALID,97.335,VALID,-0.0169808,VALID,19.8752,VALID,136,VALID,1.13996,
2002-12-10, 01:42:00,VALID,918.118,VALID,0,VALID,97.265,VALID,0,VALID,19.862,VALID,108,VALID,0.744038,
2002-12-10, 01:43:00,VALID,918.116,VALID,0,VALID,97.2867,VALID,0.0169808,VALID,19.8458,VALID,132,VALID,1.27513,
2002-12-10, 01:44:00,VALID,918.127,VALID,0,VALID,97.3973,VALID,0,VALID,19.8491,VALID,127,VALID,0.745355,
2002-12-10, 01:45:00,VALID,918.132,VALID,0,VALID,97.457,VALID,0,VALID,19.8461,VALID,141,VALID,1.625,
2002-12-10, 01:46:00,VALID,918.131,VALID,0,VALID,97.5092,VALID,0,VALID,19.8553,VALID,154,VALID,1.30335,
2002-12-10, 01:47:00,VALID,918.127,VALID,0,VALID,97.3604,VALID,0.0169808,VALID,19.8749,VALID,165,VALID,1.25452,
2002-12-10, 01:48:00,VALID,918.135,VALID,0,VALID,97.2065,VALID,0,VALID,19.8851,VALID,98,VALID,0.88199,
2002-12-10, 01:49:00,VALID,918.142,VALID,0,VALID,97.1455,VALID,0,VALID,19.856,VALID,89,VALID,1.18815,
2002-12-10, 01:50:00,VALID,918.141,VALID,0,VALID,97.2409,VALID,0,VALID,19.8493,VALID,108,VALID,1.64654,
2002-12-10, 01:51:00,VALID,918.131,VALID,0,VALID,97.3006,VALID,0.0169808,VALID,19.8491,VALID,117,VALID,1.57077,
2002-12-10, 01:52:00,VALID,918.126,VALID,0,VALID,97.3579,VALID,0,VALID,19.8687,VALID,122,VALID,2.04023,
2002-12-10, 01:53:00,VALID,918.119,VALID,0,VALID,97.2574,VALID,0,VALID,19.9204,VALID,143,VALID,1.05689,
2002-12-10, 01:54:00,VALID,918.099,VALID,0,VALID,97.0845,VALID,0.0339617,VALID,19.9336,VALID,156,VALID,1.53886,
2002-12-10, 01:55:00,VALID,918.065,VALID,0,VALID,97.0285,VALID,0.0169808,VALID,19.9366,VALID,150,VALID,2.0588,
2002-12-10, 01:56:00,VALID,918.057,VALID,0,VALID,97.0883,VALID,0,VALID,19.9495,VALID,139,VALID,2.33223,
2002-12-10, 01:57:00,VALID,918.029,VALID,0,VALID,96.9967,VALID,0,VALID,19.9882,VALID,134,VALID,1.73252,
2002-12-10, 01:58:00,VALID,918.004,VALID,0,VALID,96.867,VALID,0,VALID,20.0041,VALID,134,VALID,1.18598,
2002-12-10, 01:59:00,VALID,917.995,VALID,0,VALID,96.792,VALID,-0.0169808,VALID,19.9977,VALID,140,VALID,0.536951,
2002-12-10, 02:00:00,VALID,917.991,VALID,0,VALID,96.8301,VALID,-0.0169808,VALID,19.9882,VALID,139,VALID,1.27083,
2002-12-10, 02:01:00,VALID,917.978,VALID,0,VALID,96.8874,VALID,-0.0169808,VALID,19.9756,VALID,143,VALID,0.799479,
2002-12-10, 02:02:00,VALID,917.96,VALID,0,VALID,96.9128,VALID,-0.0169808,VALID,19.9592,VALID,99,VALID,0.915777,
2002-12-10, 02:03:00,VALID,917.935,VALID,0,VALID,96.9064,VALID,0.0169808,VALID,19.946,VALID,88,VALID,0.860008,
2002-12-10, 02:04:00,VALID,917.924,VALID,0,VALID,97.012,VALID,0,VALID,19.9201,VALID,100,VALID,1.30201,
2002-12-10, 02:05:00,VALID,917.915,VALID,0,VALID,97.1213,VALID,0,VALID,19.9005,VALID,110,VALID,1.26605,
2002-12-10, 02:06:00,VALID,917.917,VALID,0,VALID,97.2015,VALID,-0.0339617,VALID,19.898,VALID,143,VALID,1.15371,
2002-12-10, 02:07:00,VALID,917.9,VALID,0,VALID,97.2828,VALID,-0.0169808,VALID,19.8918,VALID,153,VALID,1.72266,
2002-12-10, 02:08:00,VALID,917.879,VALID,0,VALID,97.279,VALID,-0.0339617,VALID,19.9274,VALID,158,VALID,0.908784,
2002-12-10, 02:09:00,VALID,917.885,VALID,0,VALID,97.0756,VALID,0,VALID,19.947,VALID,115,VALID,0.821791,
2002-12-10, 02:10:00,VALID,917.874,VALID,0,VALID,97.0946,VALID,-0.0169808,VALID,19.9574,VALID,150,VALID,1.06039,
2002-12-10, 02:11:00,VALID,917.856,VALID,0,VALID,96.9802,VALID,0,VALID,19.9443,VALID,114,VALID,1.30647,
2002-12-10, 02:12:00,VALID,917.831,VALID,0,VALID,96.6051,VALID,0,VALID,19.9793,VALID,124,VALID,0.932155,
2002-12-10, 02:13:00,VALID,917.813,VALID,0,VALID,96.408,VALID,-0.0339617,VALID,20.0574,VALID,136,VALID,1.15287,
2002-12-10, 02:14:00,VALID,917.792,VALID,0,VALID,96.2757,VALID,-0.0339617,VALID,20.0991,VALID,155,VALID,0.793497,
2002-12-10, 02:15:00,VALID,917.792,VALID,0,VALID,96.2198,VALID,-0.0339617,VALID,20.1051,VALID,155,VALID,1.14803,
2002-12-10, 02:16:00,VALID,917.796,VALID,0,VALID,96.2147,VALID,-0.0169808,VALID,20.1051,VALID,160,VALID,1.12271,
2002-12-10, 02:17:00,VALID,917.798,VALID,0,VALID,96.1893,VALID,-0.0339617,VALID,20.0986,VALID,164,VALID,1.07484,
2002-12-10, 02:18:00,VALID,917.785,VALID,0,VALID,96.1028,VALID,-0.0509425,VALID,20.0894,VALID,127,VALID,1.12541,
2002-12-10, 02:19:00,VALID,917.774,VALID,0,VALID,96.0265,VALID,-0.0339617,VALID,20.0894,VALID,151,VALID,1.06771,
2002-12-10, 02:20:00,VALID,917.761,VALID,0,VALID,95.9388,VALID,-0.0169808,VALID,20.0959,VALID,117,VALID,0.916174,
2002-12-10, 02:21:00,VALID,917.757,VALID,0,VALID,96.0265,VALID,-0.0339617,VALID,20.0983,VALID,132,VALID,0.943704,
2002-12-10, 02:22:00,VALID,917.744,VALID,0,VALID,96.1854,VALID,-0.0169808,VALID,20.0988,VALID,153,VALID,1.24414,
2002-12-10, 02:23:00,VALID,917.729,VALID,0,VALID,96.2427,VALID,-0.0509425,VALID,20.0994,VALID,143,VALID,1.19511,
2002-12-10, 02:24:00,VALID,917.723,VALID,0,VALID,96.2846,VALID,-0.0679233,VALID,20.0733,VALID,154,VALID,0.926809,
2002-12-10, 02:25:00,VALID,917.711,VALID,0,VALID,96.3558,VALID,-0.0169808,VALID,20.0598,VALID,146,VALID,0.985197,
2002-12-10, 02:26:00,VALID,917.693,VALID,0,VALID,96.3825,VALID,0,VALID,20.0469,VALID,143,VALID,1.07695,
2002-12-10, 02:27:00,VALID,917.693,VALID,0,VALID,96.408,VALID,-0.0169808,VALID,20.0335,VALID,142,VALID,0.9081,
2002-12-10, 02:28:00,VALID,917.705,VALID,0,VALID,96.3101,VALID,-0.0169808,VALID,20.0442,VALID,127,VALID,1.16037,
2002-12-10, 02:29:00,VALID,917.71,VALID,0,VALID,96.2274,VALID,-0.0169808,VALID,20.0504,VALID,120,VALID,0.705448,
2002-12-10, 02:30:00,VALID,917.706,VALID,0,VALID,96.1804,VALID,0,VALID,20.0633,VALID,131,VALID,0.382378,
2002-12-10, 02:31:00,VALID,917.698,VALID,0,VALID,96.1473,VALID,-0.0339617,VALID,20.0563,VALID,130,VALID,0.191623,
2002-12-10, 02:32:00,VALID,917.66,VALID,0,VALID,96.1155,VALID,-0.0169808,VALID,20.0596,VALID,126,VALID,0.260671,
2002-12-10, 02:33:00,VALID,917.627,VALID,0,VALID,96.1536,VALID,-0.0509425,VALID,20.0725,VALID,102,VALID,0.188345,
2002-12-10, 02:34:00,VALID,917.594,VALID,0,VALID,96.1104,VALID,-0.0169808,VALID,20.076,VALID,16,VALID,0.394737,
2002-12-10, 02:35:00,VALID,917.562,VALID,0,VALID,96.1269,VALID,-0.0169808,VALID,20.076,VALID,21,VALID,0.255912,
2002-12-10, 02:36:00,VALID,917.543,VALID,0,VALID,96.0646,VALID,-0.0509425,VALID,20.0668,VALID,88,VALID,0.616406,
2002-12-10, 02:37:00,VALID,917.535,VALID,0,VALID,95.9896,VALID,-0.0679233,VALID,20.0504,VALID,72,VALID,0.52426,
2002-12-10, 02:38:00,VALID,917.518,VALID,0,VALID,95.9388,VALID,-0.0339617,VALID,20.0444,VALID,69,VALID,0.312922,
2002-12-10, 02:39:00,VALID,917.504,VALID,0,VALID,95.9337,VALID,-0.0169808,VALID,20.0283,VALID,105,VALID,0.606841,
2002-12-10, 02:40:00,VALID,917.481,VALID,0,VALID,95.9655,VALID,-0.0339617,VALID,19.9694,VALID,63,VALID,0.553843,
2002-12-10, 02:41:00,VALID,917.507,VALID,0,VALID,96.1219,VALID,-0.0509425,VALID,19.9279,VALID,61,VALID,0.792411,
2002-12-10, 02:42:00,VALID,917.498,VALID,0,VALID,96.2706,VALID,-0.0339617,VALID,19.9216,VALID,93,VALID,1.05942,
2002-12-10, 02:43:00,VALID,917.498,VALID,0,VALID,96.0646,VALID,-0.0339617,VALID,19.9303,VALID,85,VALID,1.05954,
2002-12-10, 02:44:00,VALID,917.472,VALID,0,VALID,95.8637,VALID,0,VALID,19.95,VALID,78,VALID,0.857264,
2002-12-10, 02:45:00,VALID,917.466,VALID,0,VALID,95.6285,VALID,-0.0169808,VALID,19.989,VALID,89,VALID,0.683388,
2002-12-10, 02:46:00,VALID,917.447,VALID,0,VALID,95.3856,VALID,-0.0509425,VALID,20.0148,VALID,116,VALID,0.070122,
2002-12-10, 02:47:00,VALID,917.423,VALID,0,VALID,95.3843,VALID,-0.0169808,VALID,19.9984,VALID,116,VALID,0.0849095,
2002-12-10, 02:48:00,VALID,917.388,VALID,0,VALID,95.5178,VALID,-0.0339617,VALID,19.9855,VALID,118,VALID,0.109786,
2002-12-10, 02:49:00,VALID,917.371,VALID,0,VALID,95.6704,VALID,-0.0339617,VALID,19.9987,VALID,134,VALID,0.309679,
2002-12-10, 02:50:00,VALID,917.361,VALID,0,VALID,95.6679,VALID,-0.0339617,VALID,19.9858,VALID,126,VALID,0.603674,
2002-12-10, 02:51:00,VALID,917.366,VALID,0,VALID,95.6208,VALID,-0.0339617,VALID,19.9629,VALID,166,VALID,0.353631,
2002-12-10, 02:52:00,VALID,917.367,VALID,0,VALID,95.4886,VALID,-0.0339617,VALID,19.9664,VALID,117,VALID,0.689648,
2002-12-10, 02:53:00,VALID,917.38,VALID,0,VALID,95.481,VALID,-0.0339617,VALID,19.9142,VALID,121,VALID,0.570913,
2002-12-10, 02:54:00,VALID,917.376,VALID,0,VALID,95.7722,VALID,-0.0169808,VALID,19.8951,VALID,139,VALID,0.943668,
2002-12-10, 02:55:00,VALID,917.369,VALID,0,VALID,95.9667,VALID,0,VALID,19.8729,VALID,139,VALID,0.98602,
2002-12-10, 02:56:00,VALID,917.363,VALID,0,VALID,95.996,VALID,0.0169808,VALID,19.8729,VALID,123,VALID,0.722656,
2002-12-10, 02:57:00,VALID,917.347,VALID,0,VALID,96.0023,VALID,-0.0339617,VALID,19.8595,VALID,102,VALID,0.899671,
2002-12-10, 02:58:00,VALID,917.348,VALID,0,VALID,96.0367,VALID,-0.0169808,VALID,19.8374,VALID,100,VALID,0.792969,
2002-12-10, 02:59:00,VALID,917.349,VALID,0,VALID,96.2388,VALID,-0.0339617,VALID,19.818,VALID,105,VALID,0.818412,
2002-12-10, 03:00:00,VALID,917.348,VALID,0,VALID,96.3596,VALID,-0.0339617,VALID,19.8111,VALID,106,VALID,0.97895,
2002-12-10, 03:01:00,VALID,917.362,VALID,0,VALID,96.4499,VALID,-0.0339617,VALID,19.8275,VALID,118,VALID,0.899306,
2002-12-10, 03:02:00,VALID,917.361,VALID,0,VALID,96.3457,VALID,-0.0339617,VALID,19.8439,VALID,103,VALID,0.966654,
2002-12-10, 03:03:00,VALID,917.342,VALID,0,VALID,96.2757,VALID,0,VALID,19.8369,VALID,119,VALID,0.45777,
2002-12-10, 03:04:00,VALID,917.322,VALID,0,VALID,96.1486,VALID,0,VALID,19.8436,VALID,119,VALID,0.907484,
2002-12-10, 03:05:00,VALID,917.289,VALID,0,VALID,96.0214,VALID,-0.0169808,VALID,19.8531,VALID,119,VALID,0.680743,
2002-12-10, 03:06:00,VALID,917.275,VALID,0,VALID,95.9438,VALID,-0.0169808,VALID,19.8796,VALID,113,VALID,0.73418,
2002-12-10, 03:07:00,VALID,917.265,VALID,0,VALID,95.9388,VALID,-0.0169808,VALID,19.909,VALID,99,VALID,0.997533,
2002-12-10, 03:08:00,VALID,917.248,VALID,0,VALID,95.7022,VALID,-0.0509425,VALID,19.905,VALID,108,VALID,1.40646,
2002-12-10, 03:09:00,VALID,917.228,VALID,0,VALID,95.467,VALID,-0.0509425,VALID,19.9211,VALID,117,VALID,1.59903,
2002-12-10, 03:10:00,VALID,917.211,VALID,0,VALID,95.5471,VALID,-0.0509425,VALID,19.9378,VALID,114,VALID,1.51351,
2002-12-10, 03:11:00,VALID,917.175,VALID,0,VALID,95.6081,VALID,-0.0849042,VALID,19.9609,VALID,143,VALID,1.18705,
2002-12-10, 03:12:00,VALID,917.145,VALID,0,VALID,95.7645,VALID,-0.0339617,VALID,19.9639,VALID,134,VALID,0.94264,
2002-12-10, 03:13:00,VALID,917.114,VALID,0,VALID,95.7327,VALID,-0.0509425,VALID,19.9567,VALID,136,VALID,1.07813,
2002-12-10, 03:14:00,VALID,917.124,VALID,0,VALID,95.804,VALID,-0.0679233,VALID,19.9736,VALID,146,VALID,1.22149,
2002-12-10, 03:15:00,VALID,917.133,VALID,0,VALID,95.9209,VALID,-0.0509425,VALID,19.9368,VALID,145,VALID,1.69223,
2002-12-10, 03:16:00,VALID,917.125,VALID,0,VALID,95.8586,VALID,-0.0509425,VALID,19.9448,VALID,158,VALID,1.64806,
2002-12-10, 03:17:00,VALID,916.72,VALID,0,VALID,95.9858,VALID,-0.0679233,VALID,19.941,VALID,166,VALID,1.49897,
2002-12-10, 03:18:00,VALID,917.152,VALID,0,VALID,95.9031,VALID,-0.0849042,VALID,19.9286,VALID,144,VALID,1.4227,
2002-12-10, 03:19:00,VALID,917.144,VALID,0,VALID,96.1193,VALID,-0.0679233,VALID,19.9057,VALID,151,VALID,1.5026,
2002-12-10, 03:20:00,VALID,917.141,VALID,0,VALID,96.0697,VALID,-0.0679233,VALID,19.8891,VALID,154,VALID,1.24873,
2002-12-10, 03:21:00,VALID,917.12,VALID,0,VALID,96.1613,VALID,-0.0169808,VALID,19.8831,VALID,153,VALID,1.51241,
2002-12-10, 03:22:00,VALID,917.102,VALID,0,VALID,96.1804,VALID,-0.0679233,VALID,19.8568,VALID,153,VALID,1.11582,
2002-12-10, 03:23:00,VALID,917.058,VALID,0,VALID,96.3419,VALID,-0.0509425,VALID,19.8468,VALID,158,VALID,1.19692,
2002-12-10, 03:24:00,VALID,917.047,VALID,0,VALID,96.4245,VALID,-0.0679233,VALID,19.8573,VALID,149,VALID,1.20045,
2002-12-10, 03:25:00,VALID,917.03,VALID,0,VALID,96.4423,VALID,-0.0509425,VALID,19.8409,VALID,146,VALID,0.981702,
2002-12-10, 03:26:00,VALID,917.034,VALID,0,VALID,96.4474,VALID,-0.0849042,VALID,19.8188,VALID,131,VALID,0.802148,
2002-12-10, 03:27:00,VALID,917.032,VALID,0,VALID,96.6038,VALID,-0.0339617,VALID,19.7857,VALID,126,VALID,0.796053,
2002-12-10, 03:28:00,VALID,917.014,VALID,0,VALID,96.7106,VALID,-0.101885,VALID,19.7862,VALID,134,VALID,0.873047,
2002-12-10, 03:29:00,VALID,917.02,VALID,0,VALID,96.7767,VALID,-0.0679233,VALID,19.7631,VALID,130,VALID,0.599873,
2002-12-10, 03:30:00,VALID,917.006,VALID,0,VALID,96.8568,VALID,-0.0169808,VALID,19.7536,VALID,131,VALID,0.498481,
2002-12-10, 03:31:00,VALID,916.995,VALID,0,VALID,96.9484,VALID,-0.0679233,VALID,19.7571,VALID,135,VALID,0.52105,
2002-12-10, 03:32:00,VALID,917.006,VALID,0,VALID,96.9268,VALID,-0.0339617,VALID,19.744,VALID,119,VALID,0.719703,
2002-12-10, 03:33:00,VALID,917.01,VALID,0,VALID,96.9357,VALID,-0.0849042,VALID,19.7375,VALID,122,VALID,0.79772,